Location: Prosper
(33.2362°N, 96.8011°W)
Time: 08:14:19
(UTC+00:00)

Cosmos 836 Rocket - Pass Details

Date: 03 December 2021
Orbit: 758 x 777 km, 74.1° (Epoch: 26 January)

Event Time Altitude Azimuth Distance (km) Brightness Sun altitude
Exits shadow 12:09:03 - 342° (NNW) 2,947 7.2 -13.5°
Reaches altitude 10° 12:10:41 10° 341° (NNW) 2,307 6.6 -13.2°
Maximum altitude 12:15:55 82° 255° (WSW) 774 4.4 -12.2°
Drops below altitude 10° 12:21:06 10° 168° (SSE) 2,282 7.4 -11.1°
Sets 12:23:27 0° 167° (SSE) 3,202 8.2 -10.7°
